Temperature
9 7 7 8 8 7 7 8 8 9 7 6 5 3 2 0 -2 -3 -4 -6 -7 -8 -9 -9 -10 -10 -10 -11 -11 -12 -12 -12 -12 -13 -13 -13 -14 -14 -14 -14 -13 -13 -12 -12
9 6 6 6 7 7 6 6 6 6 6 5 3 2 2 -0 -3 -4 -5 -6 -7 -8 -9 -10 -10 -10 -10 -11 -11 -12 -12 -12 -13 -13 -13 -13 -14 -14 -14 -14 -14 -13 -13 -13
11 7 7 9 8 7 6 6 6 6 6 4 3 2 1 -2 -4 -5 -6 -7 -8 -9 -10 -10 -9 -9 -10 -11 -11 -12 -12 -12 -13 -13 -13 -14 -14 -14 -14 -14 -14 -14 -14 -13
9 9 9 10 5 6 6 6 5 5 4 3 2 0 -2 -4 -5 -6 -7 -8 -8 -9 -9 -9 -9 -10 -10 -10 -11 -12 -12 -12 -13 -13 -14 -14 -14 -15 -15 -15 -14 -14 -14 -13
7 9 11 7 5 4 5 6 5 4 4 3 1 -0 -1 -5 -6 -7 -8 -8 -8 -8 -8 -9 -9 -10 -10 -11 -11 -12 -12 -13 -13 -14 -14 -15 -15 -14 -14 -15 -14 -14 -14 -13
5 8 11 9 5 3 4 5 4 3 3 2 -0 1 -0 -5 -7 -7 -7 -7 -7 -8 -8 -9 -9 -10 -10 -11 -11 -12 -12 -12 -13 -14 -15 -15 -15 -15 -15 -15 -14 -14 -14 -13
6 7 10 6 3 3 5 7 3 2 1 -0 -1 -2 -5 -6 -6 -7 -7 -7 -7 -7 -8 -9 -9 -10 -10 -11 -11 -11 -12 -12 -13 -14 -14 -15 -15 -15 -15 -15 -14 -14 -14 -13
6 7 8 3 2 5 6 3 2 1 -0 -1 -3 -5 -5 -6 -6 -6 -7 -7 -7 -7 -8 -9 -10 -10 -10 -11 -11 -11 -11 -12 -12 -13 -14 -15 -15 -15 -15 -15 -14 -14 -14 -13
8 10 5 3 4 3 3 2 1 -0 -1 -2 -4 -5 -5 -6 -6 -6 -7 -7 -7 -7 -8 -9 -10 -10 -10 -11 -11 -11 -11 -12 -12 -12 -13 -14 -14 -14 -14 -14 -14 -14 -14 -13
6 7 4 2 2 2 2 1 1 -0 -1 -3 -4 -5 -5 -6 -6 -6 -6 -7 -7 -8 -8 -9 -9 -10 -10 -10 -11 -11 -12 -12 -12 -13 -14 -14 -14 -14 -14 -14 -14 -13 -13 -13
6 5 2 1 1 2 2 1 0 -1 -2 -3 -4 -5 -5 -6 -6 -6 -6 -7 -7 -8 -8 -9 -9 -10 -10 -10 -10 -11 -12 -12 -12 -13 -14 -14 -14 -14 -14 -14 -14 -14 -14 -14
8 6 4 3 2 2 2 1 -0 -1 -3 -4 -4 -5 -5 -6 -6 -6 -6 -7 -7 -8 -8 -9 -9 -9 -9 -10 -10 -11 -12 -12 -13 -14 -13 -13 -14 -14 -14 -14 -14 -15 -15 -14
4 4 4 3 2 2 1 0 -1 -2 -3 -4 -4 -5 -5 -6 -6 -6 -6 -7 -7 -8 -8 -9 -9 -9 -9 -9 -10 -11 -12 -12 -13 -13 -13 -14 -14 -14 -14 -14 -14 -15 -15 -15
4 4 2 2 2 1 0 -1 -2 -3 -4 -4 -5 -5 -5 -6 -6 -6 -6 -7 -7 -8 -8 -9 -9 -9 -9 -9 -10 -11 -12 -12 -13 -13 -13 -14 -14 -14 -14 -14 -14 -15 -15 -15
3 4 3 2 2 1 -0 -1 -2 -3 -4 -4 -5 -5 -5 -6 -6 -6 -6 -7 -7 -7 -8 -9 -9 -9 -9 -9 -10 -10 -12 -12 -12 -12 -13 -13 -14 -14 -14 -14 -14 -15 -15 -15
2 2 2 2 1 1 -0 -2 -2 -3 -4 -4 -5 -5 -5 -6 -6 -6 -6 -7 -7 -7 -8 -8 -8 -9 -9 -9 -9 -10 -11 -11 -11 -12 -13 -13 -13 -14 -14 -14 -14 -15 -15 -15
2 1 1 1 1 0 -0 -1 -2 -3 -4 -4 -5 -5 -5 -5 -6 -6 -6 -7 -7 -7 -8 -8 -8 -9 -9 -9 -9 -10 -10 -10 -11 -12 -13 -13 -13 -13 -14 -15 -15 -15 -15 -15
5 5 4 3 2 1 -0 -2 -3 -3 -4 -4 -4 -5 -5 -5 -5 -5 -6 -6 -6 -7 -7 -8 -8 -9 -9 -9 -9 -9 -9 -10 -10 -12 -12 -13 -13 -13 -13 -14 -15 -15 -15 -15
3 3 2 2 1 0 -0 -1 -3 -4 -4 -4 -4 -5 -5 -5 -5 -5 -6 -6 -6 -6 -7 -7 -8 -8 -8 -9 -9 -9 -9 -9 -10 -11 -12 -12 -13 -13 -13 -13 -14 -15 -15 -15
2 2 2 1 1 0 -1 -2 -3 -4 -4 -4 -4 -5 -5 -5 -5 -6 -6 -6 -6 -6 -6 -7 -8 -8 -8 -9 -9 -9 -9 -9 -9 -10 -11 -12 -12 -12 -13 -13 -13 -14 -14 -14
2 2 1 1 1 -0 -1 -2 -3 -4 -4 -4 -4 -5 -5 -5 -5 -5 -6 -6 -6 -6 -6 -7 -7 -8 -9 -9 -9 -9 -9 -9 -9 -10 -10 -11 -11 -11 -12 -12 -12 -13 -13 -13
2 1 1 1 0 -1 -2 -3 -4 -4 -4 -4 -4 -5 -5 -5 -5 -5 -6 -6 -6 -6 -6 -7 -7 -8 -8 -9 -9 -9 -9 -9 -9 -9 -10 -10 -10 -10 -11 -11 -12 -12 -12 -13
2 1 1 1 -0 -1 -2 -3 -4 -4 -4 -4 -5 -5 -5 -5 -5 -5 -5 -6 -6 -6 -6 -6 -7 -7 -8 -8 -8 -9 -9 -9 -9 -9 -9 -9 -10 -10 -10 -10 -10 -10 -11 -12
1 1 1 -0 -1 -2 -2 -3 -4 -5 -5 -5 -5 -5 -5 -5 -5 -5 -5 -6 -6 -6 -6 -6 -6 -7 -7 -8 -8 -8 -8 -9 -9 -9 -9 -9 -9 -9 -10 -10 -9 -9 -10 -10
1 1 0 -0 -1 -1 -2 -3 -4 -4 -5 -5 -5 -5 -5 -5 -5 -5 -5 -6 -6 -6 -6 -6 -6 -7 -7 -7 -7 -8 -8 -8 -9 -9 -9 -9 -9 -9 -10 -10 -10 -10 -9 -9
1 1 1 0 -0 -1 -2 -3 -3 -4 -4 -5 -5 -5 -5 -5 -5 -5 -6 -6 -6 -6 -6 -6 -6 -6 -7 -7 -7 -7 -7 -8 -8 -8 -9 -9 -9 -9 -10 -10 -10 -10 -10 -10
1 0 -0 -1 -2 -2 -2 -3 -3 -4 -4 -4 -5 -5 -5 -5 -5 -6 -6 -6 -6 -6 -6 -6 -6 -6 -6 -7 -7 -7 -7 -7 -8 -8 -8 -8 -8 -8 -9 -10 -10 -10 -10 -10
Wind_Speed
5 3 4 6 8 9 11 9 8 10 11 15 10 13 15 15 13 13 15 15 14 15 15 16 16 16 15 16 16 16 16 16 17 17 18 18 18 19 19 19 19 19 20 20
3 2 4 8 11 11 11 11 12 13 12 4 8 12 15 14 11 13 15 14 14 15 16 16 17 16 16 16 16 16 16 16 16 17 18 18 18 18 19 19 19 19 19 20
3 3 7 9 8 11 7 8 8 9 7 7 11 13 15 10 8 13 14 14 14 15 15 16 16 16 16 16 16 16 16 16 16 17 18 18 18 18 18 18 18 19 19 20
4 5 6 1 3 5 7 8 9 10 9 7 10 12 7 3 8 12 12 13 13 13 14 15 15 15 15 15 16 16 16 16 17 17 18 18 18 18 17 16 16 17 18 19
2 4 9 2 5 5 5 6 6 7 6 7 8 12 3 1 6 9 10 11 11 12 13 14 14 15 15 15 15 16 16 17 18 18 18 18 18 18 16 16 16 16 16 18
2 4 6 1 7 6 2 5 6 7 6 7 7 9 5 3 6 8 9 10 11 12 13 13 14 15 15 16 16 16 17 18 19 18 18 18 18 18 16 16 16 16 16 16
6 7 8 5 9 8 3 2 7 6 4 3 4 4 4 4 6 8 9 10 11 12 12 12 13 14 15 16 16 17 18 18 19 18 18 17 16 16 16 15 15 15 15 15
5 6 6 11 10 8 2 6 6 4 3 2 2 1 3 4 6 8 10 11 12 12 13 13 13 14 15 16 16 17 18 18 18 18 16 14 16 15 15 14 13 13 13 14
9 5 3 12 7 4 6 5 5 4 4 3 2 0 2 4 6 8 9 10 10 12 14 13 13 13 15 16 17 18 18 18 17 17 16 15 15 15 14 13 11 11 11 10
8 8 7 11 7 7 6 5 6 7 7 5 4 2 1 4 6 7 9 9 10 12 13 14 14 14 14 15 16 17 17 17 16 15 16 16 13 12 12 12 12 12 10 8
8 4 5 10 11 10 8 9 10 8 7 6 5 3 1 3 5 7 8 9 10 11 13 14 15 15 15 15 16 17 17 16 16 14 15 15 14 12 13 11 12 13 10 8
6 7 8 8 12 12 12 10 10 10 8 6 5 4 0 3 5 6 8 9 10 12 13 14 14 15 15 16 16 17 15 16 13 13 14 13 13 13 15 15 17 16 15 12
3 6 6 10 12 11 10 11 10 9 9 8 5 3 1 3 4 6 8 9 10 12 13 13 13 14 15 16 16 16 16 15 13 13 13 13 13 13 13 13 14 13 14 14
9 10 8 8 9 11 12 12 11 9 8 7 5 3 1 3 4 6 8 9 10 11 11 12 13 14 16 16 16 16 15 14 14 12 13 13 13 12 11 11 11 9 10 12
12 6 9 12 13 13 13 11 11 9 8 7 4 2 1 3 5 6 8 9 9 9 10 12 13 15 16 16 15 15 13 11 12 12 12 12 12 12 11 11 9 8 7 7
12 10 14 16 15 14 13 12 10 9 8 6 4 3 2 3 5 6 7 8 8 9 11 12 13 15 16 15 14 12 11 15 15 12 12 12 11 11 11 11 10 8 7 7
17 14 13 14 15 15 13 11 10 10 8 7 5 3 2 2 3 5 6 7 7 8 9 10 13 15 16 15 14 11 10 11 15 12 11 12 11 11 10 10 10 8 7 8
18 17 17 18 17 15 13 11 11 11 8 7 6 4 1 2 5 7 8 8 8 7 8 12 14 15 14 15 12 9 8 9 10 11 11 11 11 10 9 9 10 9 7 7
14 14 14 14 15 15 13 12 12 10 9 8 7 4 1 1 4 6 7 7 7 8 10 13 18 14 12 15 15 8 9 9 10 10 10 13 11 9 9 9 9 9 8 7
12 13 14 14 14 12 13 12 12 10 9 8 6 5 2 1 3 5 6 4 3 5 10 12 12 11 12 13 14 8 9 10 10 10 10 10 11 10 9 9 9 9 8 7
14 15 15 15 14 13 14 14 13 12 10 8 7 5 2 1 3 3 4 4 5 8 10 11 9 10 11 13 11 8 9 9 10 10 11 10 10 10 9 9 9 8 8 8
15 15 15 15 15 13 12 12 11 11 10 8 6 5 3 2 1 2 2 3 6 11 8 6 8 13 15 13 8 8 9 10 10 10 11 11 10 10 9 9 9 8 8 8
14 15 16 16 15 14 13 11 11 11 10 9 8 7 4 1 1 2 3 4 6 10 7 6 11 15 16 10 7 8 9 10 11 11 12 12 12 11 10 10 9 9 8 8
15 15 14 13 14 14 14 12 10 8 8 7 6 5 4 3 2 2 4 7 9 9 5 8 12 13 12 8 7 8 8 9 11 11 12 12 12 13 12 11 11 10 10 11
16 15 15 16 15 13 13 12 11 9 8 7 7 7 5 4 3 2 4 5 7 7 5 7 10 11 9 7 7 8 8 8 10 11 11 12 13 14 14 14 13 12 11 11
14 14 13 13 11 11 11 12 10 9 9 8 7 6 6 4 4 3 3 4 5 5 4 5 6 7 7 7 7 8 8 9 10 10 12 12 14 14 14 16 18 15 14 12
13 12 11 10 10 10 11 12 12 11 11 10 8 7 7 5 4 3 2 2 2 3 3 4 5 6 6 7 8 8 8 9 10 11 13 13 13 14 15 17 16 17 18 19
Wind_Direction
273 268 257 258 247 224 226 246 265 290 301 318 337 336 336 339 341 339 339 344 345 341 339 338 337 336 335 334 334 335 335 337 337 336 335 335 335 337 338 338 338 337 338 338
265 213 270 266 250 237 238 245 254 276 292 343 328 327 332 340 340 335 338 341 341 339 336 336 335 333 332 329 331 330 331 331 331 333 333 333 332 336 338 337 338 339 339 339
279 289 295 270 237 207 210 220 240 271 302 324 320 331 333 337 338 334 336 338 338 336 333 331 329 327 325 326 325 326 327 326 326 328 330 330 330 333 336 335 336 336 337 339
295 307 272 104 58 188 218 241 237 258 283 299 318 322 324 349 336 333 334 333 332 331 327 324 323 322 321 322 322 323 322 322 324 325 324 324 327 328 332 334 332 332 334 338
266 280 273 190 184 179 214 266 226 237 260 296 320 304 254 94 335 330 330 328 327 326 323 322 323 324 322 322 324 324 322 322 322 322 321 322 323 322 329 332 330 330 333 337
213 261 271 125 145 149 179 265 192 211 259 300 316 319 360 13 333 332 330 330 328 325 324 325 327 326 323 324 327 328 327 322 320 321 323 323 322 323 326 327 329 330 331 336
226 246 272 123 142 153 210 352 156 205 251 278 294 316 346 342 341 336 331 332 331 328 328 329 328 326 324 326 329 328 324 321 321 324 327 325 324 325 323 324 326 329 332 336
205 233 264 143 158 194 220 119 167 189 187 206 275 322 335 344 341 335 333 335 335 330 327 328 330 329 325 328 329 326 323 323 326 328 328 326 327 327 326 326 326 328 331 337
210 235 88 170 187 183 140 159 171 164 146 145 165 163 351 342 334 331 331 333 334 328 324 329 335 332 326 327 328 326 325 328 329 328 328 330 331 331 331 330 327 324 321 329
252 254 206 190 180 164 158 147 135 129 133 142 148 127 10 338 331 329 330 334 334 329 328 332 335 333 329 328 330 327 328 330 330 330 331 334 336 336 333 331 328 330 340 346
247 232 176 193 191 169 135 128 127 121 130 141 142 126 45 324 325 327 329 335 333 331 328 330 332 332 333 335 334 332 331 332 332 332 332 336 339 339 339 342 346 355 353 346
227 192 181 183 173 155 144 146 142 139 140 137 132 130 50 313 320 326 333 334 331 331 330 330 331 331 335 338 337 335 335 336 334 334 338 342 343 344 350 352 354 1 1 359
139 135 129 130 139 144 140 141 147 150 150 147 135 128 346 320 325 333 336 336 331 328 327 327 330 334 339 340 338 337 338 337 335 339 344 346 345 343 342 346 356 5 4 1
146 131 132 147 148 140 133 132 132 128 133 140 135 126 329 317 328 337 335 327 321 321 324 329 333 340 342 340 338 339 342 342 343 344 344 343 343 343 343 345 350 359 3 3
168 157 144 138 132 131 131 137 141 142 145 141 136 149 269 317 327 324 320 320 320 323 331 335 336 339 341 340 341 341 347 349 347 345 345 347 350 351 351 352 356 358 359 6
151 128 133 141 146 149 152 159 162 160 160 157 166 191 252 293 306 311 319 327 327 327 329 330 332 335 339 342 340 341 350 352 354 351 352 354 357 357 356 357 0 1 1 358
149 153 157 161 163 165 171 175 168 160 161 165 175 198 249 307 328 338 338 333 320 312 320 333 334 334 341 344 342 343 345 347 354 355 357 357 357 357 355 357 2 360 357 355
177 171 170 169 167 167 170 165 155 155 162 167 168 191 207 9 352 336 330 327 328 337 352 348 335 340 342 345 347 343 342 345 350 354 356 358 357 354 353 354 357 357 353 351
167 161 158 161 160 161 160 155 152 154 155 160 172 176 164 348 332 323 320 325 340 350 345 335 337 343 341 346 352 343 342 345 348 351 353 355 356 353 351 349 348 348 347 345
152 148 146 146 146 150 151 147 148 153 160 165 169 171 163 350 328 318 308 304 333 316 307 325 338 337 339 346 351 346 346 345 345 346 346 352 353 350 348 343 339 338 338 336
147 143 143 145 147 148 148 150 156 161 166 173 175 170 172 270 303 304 304 337 347 327 331 342 339 335 346 349 348 348 348 346 344 343 342 343 345 344 341 337 331 327 325 322
149 150 150 149 148 148 151 156 160 162 166 174 177 181 196 224 316 318 281 297 317 328 344 341 333 345 356 352 346 348 348 346 344 343 344 342 337 334 331 328 322 318 314 310
155 156 157 157 155 150 150 159 165 170 175 179 183 188 187 187 304 316 316 316 319 336 353 341 340 351 356 351 346 348 349 347 344 346 346 344 340 332 325 319 312 304 299 298
155 158 157 150 144 149 161 170 171 177 180 182 191 197 195 191 210 237 280 308 327 341 351 345 352 357 357 352 347 347 348 346 344 345 345 343 342 340 338 331 320 309 297 290
154 153 152 155 162 170 170 164 167 175 182 193 204 210 212 211 220 274 303 312 326 341 346 350 360 2 359 349 347 345 343 343 346 346 346 344 342 342 344 345 342 332 320 307
156 163 169 175 172 166 166 170 177 182 185 192 201 204 202 202 214 246 281 302 316 342 353 352 353 357 354 348 345 344 343 342 346 348 347 344 339 342 346 349 348 348 344 337
153 156 160 167 172 174 173 177 182 185 188 190 192 193 194 192 194 205 240 273 305 336 354 358 353 352 350 345 342 343 342 344 347 349 348 344 338 338 344 348 349 349 350 349
Height
1615 1619 1619 1615 1614 1617 1617 1612 1609 1600 1605 1606 1611 1613 1612 1609 1606 1603 1599 1594 1588 1582 1576 1570 1563 1556 1550 1543 1537 1531 1525 1519 1513 1506 1500 1493 1487 1481 1474 1468 1461 1454 1447 1441
1613 1620 1620 1616 1611 1612 1613 1613 1611 1608 1607 1610 1612 1612 1609 1607 1604 1601 1597 1591 1586 1580 1574 1568 1561 1554 1548 1541 1535 1529 1523 1517 1511 1504 1498 1491 1485 1479 1473 1466 1460 1453 1447 1440
1606 1615 1614 1600 1599 1605 1608 1609 1609 1606 1607 1610 1610 1609 1608 1605 1603 1599 1594 1589 1584 1578 1573 1566 1560 1553 1546 1539 1533 1527 1521 1515 1509 1502 1496 1490 1484 1478 1472 1465 1459 1452 1446 1440
1611 1607 1605 1595 1606 1605 1606 1606 1608 1608 1609 1609 1609 1608 1606 1603 1601 1597 1593 1587 1581 1576 1570 1564 1558 1551 1545 1538 1532 1525 1519 1513 1506 1500 1493 1488 1482 1477 1471 1465 1458 1452 1446 1441
1616 1605 1591 1599 1604 1605 1605 1602 1606 1607 1607 1607 1606 1604 1602 1601 1598 1595 1591 1585 1580 1574 1568 1562 1556 1550 1543 1537 1530 1524 1518 1511 1505 1498 1491 1485 1480 1475 1470 1464 1458 1452 1447 1441
1620 1608 1589 1589 1602 1604 1607 1601 1603 1604 1604 1605 1605 1600 1601 1599 1596 1593 1589 1583 1578 1573 1567 1561 1555 1549 1542 1535 1529 1523 1516 1510 1503 1496 1490 1483 1478 1473 1468 1463 1458 1453 1447 1442
1615 1607 1584 1596 1601 1605 1601 1594 1601 1602 1603 1603 1604 1603 1601 1597 1594 1591 1587 1582 1577 1572 1566 1560 1554 1547 1541 1535 1529 1522 1515 1508 1500 1494 1488 1482 1476 1471 1466 1461 1457 1452 1447 1443
1608 1604 1591 1596 1599 1598 1594 1596 1598 1600 1601 1601 1601 1599 1597 1595 1593 1590 1586 1581 1576 1571 1565 1559 1552 1546 1540 1534 1528 1521 1513 1506 1499 1493 1486 1480 1475 1470 1465 1460 1456 1452 1447 1443
1593 1587 1587 1590 1590 1591 1592 1594 1596 1598 1598 1597 1597 1596 1595 1593 1591 1588 1584 1580 1575 1570 1565 1558 1552 1546 1539 1533 1526 1519 1512 1505 1498 1492 1486 1480 1475 1469 1464 1460 1456 1451 1447 1444
1588 1582 1585 1586 1587 1588 1590 1593 1594 1595 1595 1594 1594 1594 1593 1592 1589 1586 1583 1578 1574 1569 1563 1558 1552 1546 1540 1533 1525 1518 1510 1503 1497 1491 1485 1480 1475 1470 1464 1459 1455 1451 1447 1444
1582 1581 1582 1583 1584 1586 1589 1591 1593 1593 1593 1593 1592 1592 1592 1590 1588 1585 1582 1578 1573 1567 1562 1557 1551 1545 1539 1532 1524 1516 1509 1503 1496 1490 1486 1480 1475 1470 1465 1460 1456 1452 1448 1445
1570 1571 1574 1577 1580 1584 1587 1589 1591 1591 1590 1590 1591 1591 1590 1588 1587 1584 1581 1577 1572 1567 1562 1556 1550 1545 1539 1532 1525 1516 1508 1502 1496 1491 1486 1480 1475 1470 1466 1461 1456 1452 1448 1446
1567 1568 1571 1574 1579 1582 1585 1587 1588 1588 1589 1589 1589 1589 1589 1588 1586 1584 1580 1576 1572 1567 1562 1556 1550 1545 1540 1533 1525 1517 1510 1503 1497 1492 1486 1480 1475 1470 1465 1461 1457 1453 1449 1447
1564 1567 1570 1573 1577 1580 1582 1584 1585 1586 1587 1588 1588 1588 1587 1587 1585 1583 1580 1576 1572 1567 1562 1556 1551 1546 1540 1533 1526 1518 1511 1505 1500 1494 1488 1482 1477 1472 1467 1462 1457 1454 1450 1448
1561 1564 1567 1571 1574 1577 1580 1581 1583 1584 1586 1587 1587 1587 1587 1586 1585 1582 1579 1575 1571 1567 1562 1557 1552 1546 1540 1533 1527 1520 1513 1506 1501 1495 1490 1485 1479 1473 1468 1464 1460 1456 1453 1450
1556 1561 1564 1568 1571 1574 1576 1579 1581 1583 1585 1586 1586 1586 1586 1585 1583 1581 1578 1574 1570 1566 1562 1557 1552 1547 1540 1534 1528 1521 1516 1509 1503 1497 1492 1486 1481 1475 1470 1466 1462 1458 1456 1453
1550 1555 1559 1564 1567 1570 1573 1576 1579 1582 1583 1584 1585 1585 1584 1584 1583 1581 1578 1574 1570 1566 1562 1557 1553 1548 1542 1536 1529 1523 1518 1511 1505 1499 1494 1489 1483 1477 1472 1468 1465 1461 1458 1455
1546 1550 1555 1560 1564 1567 1570 1573 1576 1579 1581 1582 1583 1583 1583 1583 1582 1580 1577 1574 1570 1567 1563 1558 1553 1548 1543 1537 1531 1526 1520 1514 1507 1502 1496 1491 1486 1480 1475 1471 1467 1463 1460 1456
1544 1549 1554 1558 1562 1565 1568 1570 1573 1576 1578 1579 1580 1582 1582 1582 1580 1578 1575 1572 1569 1566 1562 1558 1553 1549 1544 1538 1533 1528 1522 1517 1511 1505 1499 1494 1488 1483 1478 1473 1469 1465 1461 1458
1541 1546 1550 1554 1558 1562 1565 1568 1570 1572 1574 1576 1578 1580 1580 1580 1579 1577 1574 1570 1567 1564 1560 1556 1553 1549 1544 1539 1535 1530 1525 1519 1513 1507 1502 1496 1491 1485 1480 1475 1471 1466 1462 1458
1539 1544 1548 1551 1555 1559 1562 1565 1567 1570 1572 1574 1576 1577 1578 1578 1577 1575 1573 1570 1567 1563 1559 1556 1553 1548 1544 1540 1536 1532 1527 1521 1515 1509 1504 1499 1493 1488 1482 1477 1472 1467 1463 1459
1536 1541 1545 1548 1551 1554 1558 1562 1565 1568 1569 1571 1573 1575 1576 1575 1575 1574 1572 1569 1566 1562 1559 1556 1552 1548 1544 1541 1537 1533 1528 1523 1518 1512 1506 1501 1495 1489 1484 1478 1473 1468 1463 1458
1533 1538 1542 1544 1548 1551 1554 1558 1561 1564 1567 1569 1571 1572 1574 1574 1574 1573 1571 1568 1565 1561 1558 1555 1552 1548 1545 1541 1537 1533 1529 1524 1519 1514 1508 1503 1497 1491 1486 1480 1474 1468 1462 1457
1528 1534 1538 1541 1544 1548 1550 1554 1558 1561 1563 1565 1567 1569 1571 1571 1571 1570 1569 1567 1564 1561 1558 1555 1551 1548 1545 1541 1537 1533 1529 1524 1519 1515 1510 1505 1499 1493 1488 1482 1476 1470 1463 1457
1523 1529 1533 1536 1540 1543 1548 1551 1553 1556 1559 1562 1564 1566 1567 1568 1569 1568 1567 1566 1564 1561 1558 1555 1552 1549 1545 1541 1537 1532 1528 1524 1520 1516 1511 1505 1500 1494 1489 1484 1478 1472 1465 1459
1519 1525 1529 1533 1537 1540 1543 1545 1548 1551 1555 1557 1560 1562 1564 1565 1566 1566 1565 1564 1563 1560 1558 1555 1552 1549 1546 1541 1537 1533 1529 1525 1521 1516 1511 1506 1501 1495 1490 1485 1479 1473 1467 1461
1516 1520 1524 1528 1532 1535 1538 1541 1544 1547 1550 1553 1556 1558 1560 1561 1562 1562 1562 1561 1561 1559 1557 1555 1552 1549 1546 1542 1538 1533 1529 1525 1521 1517 1512 1507 1502 1496 1491 1486 1480 1474 1468 1462